Flag for Ukraine Weather past 2 weeks in Kyiv, Ukraine

Now
72 °F

Partly sunny.


Feels Like: 75 °F
Forecast: 58 / 76 °F
Wind: 6 mph from Northwest

Location: Kyiv

Current Time: Jul 30, 2015 at 12:05:41 PM

Latest Report: Jul 30, 2015 at 11:30 AM


Visibility: N/A

Pressure: 29.83 "Hg

Humidity: 69%

Dew point: 61 °F

Location of KyivLocation

Historic Weather in Kyiv — Graph

°F

Kyiv temperature yesterday

Maximum temperature yesterday: 81 °F (at 12:30 PM)
Minimum temperature yesterday: 57 °F (at 3:30 AM)
Average temperature yesterday: 68 °F

Past Weeks' High & Low Weather Summary

 TemperatureHumidityPressure
High93 °F (Jul 26, 4:00 PM)100% (Jul 27, 9:30 AM)30.07 "Hg (Jul 27, 9:30 AM)
Low52 °F (Jul 22, 4:00 AM)28% (Jul 26, 6:00 PM)29.68 "Hg (Jul 26, 4:30 PM)
Average72 °F60%29.89 "Hg
* Reported Jul 15 11:00 AM — Jul 30 11:00 AM, Kyiv, Weather by CustomWeather, © 2015

Note: Actual official high and low records may vary slightly from our data, if they occured in-between our weather recording intervals... More about our weather records

Advertising

Kyiv weather history for previous 24 hours

 ConditionsComfort  
Time TempWeatherWind HumidityBarometerVisibility
11:00 AM
Thu, Jul 30
72 °FBroken clouds.8 mph73%29.83 "HgN/A
10:30 AM70 °FBroken clouds.8 mph78%29.83 "HgN/A
10:00 AM70 °FPartly sunny.8 mph83%29.83 "Hg6 mi
9:30 AM66 °FPartly sunny.8 mph88%29.80 "HgN/A
9:00 AM66 °FPartly sunny.10 mph88%29.80 "HgN/A
8:30 AM66 °FPartly sunny.8 mph88%29.80 "HgN/A
8:00 AM66 °FPartly sunny.3 mph94%29.80 "HgN/A
7:30 AM66 °FPassing clouds.3 mph94%29.80 "HgN/A
7:00 AM64 °FSunny.1 mph94%29.80 "Hg10 mi
6:30 AM64 °FPartly sunny.1 mph94%29.80 "HgN/A
6:00 AM64 °FClear.3 mph94%29.77 "Hg10 mi
5:30 AM63 °FClear.3 mph100%29.80 "Hg5 mi
5:00 AM63 °FClear.6 mph94%29.80 "Hg10 mi
4:30 AM64 °FClear.6 mph88%29.80 "Hg5 mi
4:00 AM64 °FPassing clouds.3 mph88%29.80 "HgN/A
3:30 AM64 °FClear.6 mph88%29.80 "Hg10 mi
3:00 AM63 °FClear.6 mph94%29.80 "Hg10 mi
2:30 AM64 °FClear.8 mph88%29.83 "Hg10 mi
2:00 AM64 °FClear.6 mph88%29.83 "Hg10 mi
1:30 AM63 °FClear.6 mph94%29.83 "Hg10 mi
1:00 AM63 °FClear.8 mph94%29.83 "Hg10 mi
12:30 AM63 °FSprinkles. Mostly cloudy.8 mph94%29.86 "Hg6 mi
12:00 AM63 °FSprinkles. Mostly cloudy.3 mph88%29.86 "Hg6 mi
11:30 PM
Wed, Jul 29
63 °FSprinkles. Partly cloudy.6 mph88%29.86 "HgN/A
11:00 PM64 °FSprinkles. Partly cloudy.6 mph83%29.86 "Hg6 mi
10:30 PM68 °FSprinkles. Partly cloudy.8 mph64%29.86 "HgN/A
10:00 PM68 °FClear.6 mph69%29.86 "Hg10 mi
9:30 PM68 °FSunny.6 mph64%29.86 "Hg10 mi
9:00 PM68 °FSunny.6 mph64%29.83 "Hg10 mi
8:30 PM68 °FSunny.6 mph64%29.83 "Hg10 mi
8:00 PM68 °FSunny.8 mph64%29.83 "Hg10 mi
7:30 PM68 °FSunny.6 mph64%29.83 "Hg10 mi
7:00 PM68 °FPassing clouds.8 mph64%29.86 "HgN/A
6:30 PM70 °FSunny.6 mph64%29.86 "Hg10 mi
6:00 PM70 °FSunny.6 mph64%29.86 "Hg10 mi
5:30 PM72 °FPartly sunny.6 mph65%29.86 "HgN/A
5:00 PM70 °FSprinkles. More clouds than sun.6 mph73%29.83 "HgN/A
4:30 PM72 °FSprinkles. More clouds than sun.3 mph69%29.83 "HgN/A
4:00 PM72 °FSprinkles. More clouds than sun.10 mph69%29.86 "HgN/A
3:30 PM77 °FPartly sunny.10 mph47%29.86 "HgN/A
3:00 PM77 °FSunny.10 mph44%29.83 "Hg10 mi
2:30 PM77 °FSunny.15 mph47%29.83 "Hg10 mi
2:00 PM79 °FPassing clouds.13 mph45%29.83 "HgN/A
1:30 PM77 °FSunny.15 mph47%29.83 "Hg10 mi
1:00 PM77 °FSunny.10 mph47%29.83 "Hg10 mi
12:30 PM81 °FPassing clouds.13 mph42%29.83 "HgN/A
12:00 PM79 °FPassing clouds.10 mph45%29.83 "HgN/A
Weather by CustomWeather, © 2015

See weather overviewHow to use our weather pages